Weather in Vysokoye

Russia / Oryol Oblast     53°06′56″N   36°43′46″E
temp.,
°C
wind,
m/s
gust,
m/s
humid.,
%
clouds,
%
prec.,
mm/h
press.,
hPa
HPBL,
m
14 april, wed
wed1400:00+12se497716 0.0 1020212
03:00+10sse3893100 0.0 1021176
06:00+9s359594 0.0 102094
09:00+12sse347953 0.0 1020383
12:00+16se3558100 0.0 10181154
15:00+19se57297 0.0 10162197
18:00+17se4737100 0.0 1016217
21:00+13se3345100 0.0 101635
15 april, thu
thu1500:00+12e3351100 0.0 101544
03:00+11ese3453100 0.0 101572
06:00+11ene4957100 0.0 1014144
09:00+13e51257100 0.0 1014584
12:00+17ese684572 0.0 10131697
15:00+15sse475396 0.1 1013410
18:00+15se235784 1.4 1013170
21:00+13s226456 2.1 101427
16 april, fri
fri1600:00+12e1166100 0.0 101413
03:00+10se22785 0.0 101522
06:00+9e3679100 0.0 1015139
09:00+11ese6875100 0.3 1016698
12:00+14e576491 0.1 10161022
15:00+15se5755100 2.4 10161410
18:00+14se475599 0.6 1016293
21:00+11e117026 0.8 101813
17 april, sat
sat1700:00+10ene228149 0.0 101834
03:00+8ene369498 0.6 1019152
06:00+8ne51096100 0.0 1019313
09:00+9ene6118796 0.1 1019508
12:00+14ene91264100 0.1 10181192
15:00+16ene91259100 0.3 10181648
18:00+12ese6107691 1.9 1019954
21:00+10e4887100 2.9 1021499
18 april, sun
sun1800:00+9e5991100 2.6 1021583
03:00+8ese2593100 3.2 1022378
06:00+8ne3592100 1.3 1023314
09:00+6ene5885100 1.8 1023392
12:00+9ene5776100 0.1 1024681
15:00+9ene71078100 0.2 10251116
18:00+8e3775100 0.1 1025330
21:00+7e0181100 0.1 102611